Total_Precipitation_Accumulation
0.58 0.58 0.61 0.56 0.54 0.53 0.56 0.71 0.93 0.78 0.39 0.20 0.18 0.20 0.26 0.32 0.41 0.47 0.45 0.54 0.60 0.65 0.75 0.85 0.90 0.94 1.08 1.42 2.14 3.02 3.70 3.83 3.50 2.98 2.71 2.89 3.22 3.67
0.65 0.66 0.67 0.65 0.63 0.61 0.62 0.64 0.79 0.95 0.68 0.27 0.22 0.23 0.29 0.34 0.43 0.46 0.44 0.52 0.57 0.62 0.65 0.70 0.80 0.91 1.02 1.16 1.47 2.14 2.92 3.54 3.79 3.69 3.43 3.32 3.48 3.79
0.76 0.78 0.72 0.69 0.73 0.71 0.70 0.70 0.71 0.84 0.85 0.37 0.24 0.27 0.38 0.46 0.45 0.45 0.45 0.46 0.48 0.56 0.62 0.64 0.68 0.76 0.88 1.02 1.18 1.56 2.23 2.89 3.49 3.86 4.02 3.94 3.86 3.84
0.84 0.84 0.81 0.79 0.80 0.79 0.83 0.81 0.75 0.73 0.84 0.61 0.33 0.31 0.36 0.45 0.48 0.49 0.47 0.46 0.45 0.51 0.57 0.64 0.69 0.74 0.80 0.91 1.06 1.23 1.60 2.14 2.75 3.32 3.70 3.79 3.78 3.99
0.88 0.93 0.91 0.91 0.91 0.88 0.90 0.91 0.87 0.78 0.79 0.79 0.52 0.38 0.39 0.46 0.55 0.56 0.53 0.54 0.52 0.55 0.57 0.64 0.72 0.77 0.80 0.87 0.98 1.11 1.23 1.48 1.90 2.55 3.20 3.48 3.50 3.58
0.91 0.96 1.00 1.05 1.05 1.06 1.13 1.11 1.08 1.06 0.98 0.95 0.76 0.58 0.55 0.56 0.67 0.69 0.63 0.60 0.63 0.62 0.64 0.64 0.69 0.76 0.78 0.79 0.81 0.89 1.06 1.34 1.66 2.05 2.61 3.05 3.17 3.19
0.98 0.98 0.99 1.09 1.24 1.40 1.53 1.46 1.35 1.36 1.29 1.24 1.07 0.87 0.74 0.76 0.85 0.79 0.79 0.70 0.72 0.74 0.72 0.67 0.65 0.64 0.69 0.78 0.86 0.91 0.98 1.15 1.39 1.74 2.17 2.62 2.93 3.00
0.94 0.88 0.88 0.94 1.03 1.17 1.35 1.37 1.35 1.49 1.56 1.49 1.32 1.13 0.88 0.80 0.90 1.03 1.10 1.10 0.99 0.83 0.84 0.82 0.77 0.77 0.75 0.76 0.88 0.94 1.02 1.15 1.28 1.48 1.83 2.19 2.56 2.89
0.78 0.75 0.73 0.76 0.86 0.83 0.96 1.03 1.09 1.18 1.36 1.49 1.53 1.26 1.05 0.96 1.14 1.31 1.32 1.29 1.04 0.89 1.03 1.13 1.01 0.95 0.88 0.90 0.98 0.94 1.00 1.10 1.24 1.35 1.50 1.80 2.16 2.57
0.74 0.73 0.71 0.70 0.76 0.90 0.98 0.94 0.86 0.86 1.04 1.25 1.43 1.32 1.21 1.24 1.47 1.70 1.77 1.78 1.49 1.19 1.16 1.37 1.23 1.16 1.09 1.03 1.04 0.95 0.97 1.01 1.09 1.22 1.39 1.58 1.82 2.15
0.79 0.81 0.81 0.72 0.81 1.00 1.07 1.01 0.86 0.78 0.86 1.09 1.31 1.42 1.50 1.65 1.89 2.19 2.29 2.34 2.15 1.73 1.46 1.47 1.39 1.31 1.28 1.23 1.17 1.10 1.03 1.00 0.99 1.07 1.23 1.42 1.66 1.93
0.82 0.86 0.99 0.96 0.96 1.02 1.05 1.09 1.05 0.84 0.75 0.82 0.90 1.02 1.13 1.30 1.63 1.89 2.05 2.23 2.19 2.07 1.71 1.60 1.60 1.56 1.68 1.42 1.21 1.11 1.06 1.08 1.02 0.97 1.02 1.17 1.43 1.63
0.89 0.92 0.95 1.04 1.02 1.03 1.07 1.07 1.10 0.98 0.89 0.92 0.91 0.89 0.95 1.09 1.28 1.55 1.81 2.02 2.14 2.05 1.70 1.77 1.93 1.79 1.75 1.56 1.30 1.15 1.06 1.00 0.92 0.91 0.93 1.02 1.22 1.41
0.92 0.81 0.87 1.03 1.03 1.07 1.05 1.07 1.11 1.09 1.03 1.00 0.93 0.84 0.85 0.98 1.09 1.29 1.58 1.74 1.83 1.83 1.66 1.82 2.10 1.86 1.78 1.59 1.39 1.28 1.17 1.09 0.96 0.86 0.82 0.98 1.11 1.28
1.00 1.06 1.00 1.03 1.04 0.99 0.97 1.02 1.03 1.00 1.06 1.03 0.88 0.74 0.71 0.83 0.97 1.16 1.40 1.63 1.73 1.74 1.73 1.75 1.92 1.90 1.91 1.75 1.38 1.24 1.27 1.27 1.10 0.97 0.88 0.83 0.85 1.01
0.99 1.07 1.08 1.03 1.02 0.99 0.97 0.95 0.91 0.95 0.99 0.94 0.81 0.72 0.73 0.86 1.02 1.15 1.34 1.52 1.75 1.75 1.70 1.73 1.90 2.12 2.10 1.69 1.45 1.31 1.19 1.31 1.24 1.10 0.98 0.90 0.83 0.83
1.25 1.23 1.18 1.13 1.13 1.04 0.96 0.90 0.89 0.94 0.97 0.86 0.83 0.85 0.88 0.95 1.03 1.08 1.24 1.39 1.58 1.55 1.58 1.74 1.91 2.07 2.17 2.03 1.80 1.46 1.25 1.19 1.18 1.15 1.08 1.02 0.97 0.91
1.30 1.27 1.13 1.02 0.99 0.96 0.95 0.94 0.89 0.85 0.84 0.85 0.88 0.89 0.92 0.95 0.99 1.02 1.13 1.29 1.39 1.37 1.42 1.58 1.82 2.06 2.27 2.38 2.09 1.64 1.37 1.26 1.23 1.19 1.10 1.06 1.07 1.06
1.06 0.99 0.92 0.88 0.89 0.89 0.89 0.89 0.84 0.75 0.78 0.86 0.90 0.90 0.92 0.96 1.01 1.03 1.08 1.19 1.27 1.29 1.35 1.47 1.67 1.90 1.98 2.02 2.13 1.84 1.52 1.37 1.31 1.34 1.25 1.09 1.08 1.09
0.86 0.83 0.83 0.82 0.85 0.88 0.85 0.82 0.79 0.78 0.81 0.85 0.88 0.88 0.90 0.96 0.99 0.97 1.00 1.09 1.17 1.22 1.29 1.39 1.55 1.75 1.86 1.74 1.82 1.88 1.80 1.55 1.38 1.39 1.38 1.28 1.23 1.27
0.76 0.76 0.76 0.81 0.82 0.82 0.79 0.78 0.78 0.77 0.76 0.80 0.83 0.85 0.86 0.92 0.93 0.87 0.90 1.00 1.10 1.15 1.18 1.18 1.31 1.55 1.80 1.86 1.80 1.69 1.76 1.85 1.60 1.41 1.36 1.38 1.38 1.37
0.69 0.71 0.71 0.75 0.81 0.84 0.81 0.79 0.79 0.75 0.74 0.77 0.78 0.79 0.82 0.87 0.88 0.85 0.89 0.96 0.99 1.02 1.08 1.12 1.21 1.44 1.76 1.93 1.82 1.64 1.65 1.84 2.01 1.81 1.50 1.34 1.41 1.50
0.71 0.70 0.70 0.71 0.76 0.81 0.84 0.83 0.79 0.73 0.71 0.74 0.75 0.74 0.76 0.82 0.82 0.85 0.87 0.89 0.94 0.97 1.04 1.14 1.20 1.35 1.60 1.76 1.84 1.76 1.65 1.65 1.75 1.84 1.89 1.61 1.29 1.21